Location: Baia Mare
(47.6567°N, 23.5850°E)
Time: 17:48:24
(UTC+03:00)

ISS - Pass Details

Date: 21 July 2018
Orbit: 402 x 408 km, 51.6° (Epoch: 20 July)

Event Time Altitude Azimuth Distance (km) Brightness Sun altitude
Rises 00:46:56 0° 271° (W) 2,322 0.2 -21.1°
Reaches altitude 10° 00:49:04 10° 278° (W) 1,464 -0.8 -21.1°
Maximum altitude 00:52:13 43° 351° (N) 586 -2.6 -21.2°
Drops below altitude 10° 00:55:23 10° 65° (ENE) 1,469 -0.8 -21.3°
Sets 00:57:33 0° 73° (ENE) 2,332 0.1 -21.4°
